Location: Doschendorf
(50.0069°N, 11.0602°E)
Time: 23:53:51
(UTC+00:00)

Cosmos 1933 Rocket - Pass Details

Date: 17 November 2019
Orbit: 606 x 630 km, 82.5° (Epoch: 15 December)

Event Time Altitude Azimuth Distance (km) Brightness Sun altitude
Rises 16:55:11 0° 358° (N) 2,879 6.9 -13.6°
Reaches altitude 10° 16:57:40 10° 10° (N) 1,970 5.9 -14.0°
Maximum altitude 17:01:27 28° 70° (ENE) 1,140 4.3 -14.6°
Enters shadow 17:03:57 17° 119° (ESE) 1,554 5.2 -15.0°
